Total_Precipitation_Accumulation
0.06 0.01 0.01 0.00 0.01 0.01 0.01 0.01 0.01 0.02 0.03 0.03 0.05 0.03 0.05 0.14 0.20 0.23 0.20 0.15 0.11 0.07 0.04 0.05 0.05 0.06 0.07 0.06 0.05 0.06 0.06 0.08 0.08 0.01 0.00 0.00 0.00 0.00 0.00 0.00 0.00 0.00 0.00
0.07 0.04 0.01 0.01 0.01 0.02 0.01 0.01 0.01 0.01 0.01 0.02 0.04 0.04 0.02 0.03 0.09 0.16 0.16 0.16 0.09 0.10 0.08 0.04 0.03 0.05 0.06 0.05 0.05 0.06 0.06 0.05 0.09 0.05 0.01 0.00 0.00 0.00 0.00 0.01 0.00 0.01 0.01
0.18 0.09 0.04 0.03 0.01 0.01 0.01 0.02 0.02 0.01 0.00 0.00 0.02 0.04 0.02 0.01 0.03 0.06 0.06 0.09 0.06 0.03 0.05 0.05 0.02 0.03 0.03 0.03 0.03 0.01 0.01 0.03 0.05 0.06 0.02 0.01 0.00 0.01 0.02 0.02 0.01 0.02 0.01
0.18 0.08 0.08 0.05 0.03 0.02 0.01 0.02 0.02 0.02 0.01 0.01 0.01 0.02 0.02 0.02 0.04 0.05 0.04 0.05 0.08 0.06 0.06 0.08 0.05 0.02 0.02 0.02 0.02 0.01 0.02 0.04 0.05 0.05 0.03 0.02 0.03 0.01 0.05 0.03 0.02 0.02 0.02
0.19 0.14 0.14 0.09 0.08 0.08 0.06 0.03 0.02 0.02 0.02 0.02 0.01 0.02 0.02 0.02 0.02 0.02 0.03 0.06 0.08 0.10 0.10 0.09 0.10 0.12 0.11 0.13 0.13 0.12 0.16 0.15 0.15 0.18 0.16 0.11 0.08 0.09 0.11 0.10 0.15 0.12 0.13
0.06 0.09 0.13 0.07 0.10 0.12 0.14 0.17 0.11 0.07 0.09 0.06 0.06 0.05 0.05 0.06 0.11 0.04 0.02 0.01 0.03 0.06 0.10 0.10 0.04 0.03 0.02 0.04 0.04 0.04 0.06 0.09 0.10 0.11 0.14 0.15 0.08 0.06 0.05 0.08 0.16 0.28 0.31
0.09 0.06 0.05 0.04 0.04 0.06 0.10 0.11 0.11 0.11 0.16 0.11 0.14 0.14 0.13 0.16 0.31 0.15 0.15 0.05 0.03 0.05 0.05 0.05 0.04 0.08 0.15 0.02 0.07 0.10 0.11 0.20 0.21 0.21 0.16 0.19 0.29 0.38 0.43 0.43 0.44 0.44 0.44
0.07 0.07 0.06 0.06 0.08 0.07 0.08 0.08 0.09 0.11 0.11 0.11 0.11 0.10 0.13 0.16 0.24 0.24 0.31 0.19 0.09 0.06 0.06 0.09 0.10 0.08 0.16 0.20 0.06 0.10 0.14 0.26 0.41 0.36 0.42 0.57 0.60 0.50 0.46 0.55 0.63 0.70 0.75
0.16 0.10 0.07 0.04 0.07 0.09 0.07 0.05 0.07 0.10 0.12 0.11 0.11 0.11 0.10 0.08 0.23 0.22 0.25 0.16 0.11 0.11 0.17 0.20 0.24 0.12 0.21 0.24 0.12 0.09 0.15 0.35 0.67 0.54 0.42 0.57 0.61 0.48 0.42 0.40 0.58 1.02 1.42
0.10 0.11 0.08 0.09 0.04 0.02 0.02 0.02 0.02 0.03 0.06 0.10 0.05 0.05 0.12 0.08 0.16 0.14 0.15 0.10 0.06 0.08 0.14 0.21 0.46 0.21 0.17 0.18 0.14 0.09 0.29 0.62 0.49 0.55 0.64 0.76 0.76 0.81 0.95 0.74 0.72 1.07 1.47
0.12 0.10 0.10 0.12 0.11 0.04 0.02 0.01 0.01 0.01 0.02 0.03 0.04 0.05 0.09 0.14 0.16 0.24 0.21 0.16 0.11 0.16 0.23 0.25 0.30 0.58 0.29 0.35 0.46 0.37 0.91 0.98 0.97 0.76 0.71 0.79 0.82 0.85 0.90 0.89 0.84 0.83 0.90
0.13 0.11 0.09 0.05 0.10 0.13 0.05 0.03 0.04 0.03 0.04 0.05 0.06 0.07 0.08 0.08 0.17 0.17 0.18 0.22 0.30 0.26 0.40 0.40 0.53 0.57 0.35 0.43 0.60 0.89 1.09 0.97 0.93 1.12 1.24 1.33 1.31 1.27 1.20 1.06 0.92 0.80 0.74
0.23 0.23 0.17 0.12 0.07 0.04 0.05 0.05 0.06 0.06 0.07 0.08 0.10 0.12 0.12 0.10 0.14 0.24 0.20 0.26 0.38 0.39 0.58 0.77 0.79 0.68 0.63 0.73 0.91 1.00 1.05 1.09 1.25 1.36 1.43 1.42 1.29 1.14 0.95 0.78 0.63 0.51 0.41
0.00 0.00 0.01 0.02 0.03 0.03 0.04 0.05 0.06 0.08 0.10 0.14 0.20 0.24 0.23 0.22 0.20 0.18 0.21 0.25 0.36 0.50 0.76 0.88 0.89 0.88 0.89 0.98 1.05 1.07 1.11 1.21 1.26 1.28 1.24 1.14 0.96 0.77 0.61 0.49 0.39 0.31 0.22
0.00 0.00 0.01 0.02 0.03 0.04 0.08 0.12 0.12 0.22 0.22 0.25 0.32 0.35 0.37 0.48 0.68 0.70 0.72 0.81 0.88 1.00 1.05 1.15 1.20 1.22 1.23 1.24 1.18 1.11 1.03 0.93 0.82 0.74 0.63 0.52 0.41 0.30 0.21 0.14 0.10 0.07 0.06
0.00 0.01 0.02 0.02 0.03 0.05 0.07 0.13 0.20 0.26 0.25 0.29 0.35 0.40 0.58 0.74 0.79 0.77 0.80 0.88 0.97 1.01 0.92 0.94 0.91 0.84 0.76 0.69 0.61 0.55 0.47 0.39 0.33 0.25 0.18 0.12 0.09 0.06 0.04 0.02 0.01 0.01 0.00
0.02 0.03 0.03 0.04 0.05 0.08 0.12 0.14 0.19 0.24 0.26 0.37 0.47 0.53 0.56 0.64 0.62 0.60 0.60 0.60 0.62 0.52 0.48 0.50 0.48 0.44 0.40 0.34 0.28 0.22 0.16 0.10 0.06 0.04 0.04 0.03 0.02 0.01 0.01 0.00 0.00 0.00 0.00
0.02 0.05 0.08 0.09 0.10 0.13 0.18 0.25 0.32 0.38 0.42 0.52 0.63 0.67 0.70 0.70 0.69 0.65 0.59 0.45 0.42 0.37 0.34 0.31 0.28 0.24 0.18 0.13 0.09 0.05 0.04 0.03 0.02 0.01 0.01 0.01 0.00 0.00 0.00 0.00 0.00 0.00 0.00
0.04 0.08 0.11 0.15 0.18 0.22 0.27 0.29 0.32 0.35 0.40 0.47 0.54 0.56 0.58 0.52 0.46 0.42 0.35 0.31 0.28 0.24 0.18 0.14 0.10 0.06 0.04 0.03 0.03 0.02 0.01 0.01 0.01 0.00 0.00 0.00 0.00 0.00 0.00 0.00 0.00 0.00 0.00
0.05 0.06 0.07 0.09 0.11 0.11 0.12 0.13 0.14 0.14 0.15 0.16 0.17 0.19 0.17 0.14 0.13 0.11 0.09 0.07 0.05 0.04 0.03 0.02 0.02 0.01 0.01 0.01 0.01 0.00 0.00 0.00 0.00 0.00 0.00 0.00 0.00 0.00 0.00 0.00 0.00 0.00 0.00
0.04 0.04 0.04 0.05 0.07 0.08 0.08 0.07 0.07 0.06 0.07 0.07 0.07 0.04 0.02 0.01 0.01 0.01 0.01 0.01 0.01 0.01 0.01 0.00 0.00 0.00 0.00 0.00 0.00 0.00 0.00 0.00 0.00 0.00 0.00 0.00 0.00 0.00 0.00 0.00 0.00 0.00 0.00
0.02 0.01 0.01 0.01 0.01 0.02 0.02 0.02 0.02 0.02 0.01 0.01 0.01 0.00 0.00 0.00 0.00 0.00 0.00 0.00 0.00 0.00 0.00 0.00 0.00 0.00 0.00 0.00 0.00 0.00 0.00 0.00 0.00 0.00 0.00 0.00 0.00 0.00 0.00 0.00 0.00 0.00 0.00
0.00 0.00 0.00 0.00 0.00 0.00 0.00 0.00 0.00 0.00 0.00 0.00 0.00 0.00 0.00 0.00 0.00 0.00 0.01 0.01 0.01 0.01 0.00 0.00 0.00 0.00 0.00 0.00 0.01 0.00 0.00 0.00 0.00 0.00 0.00 0.00 0.00 0.00 0.00 0.00 0.00 0.00 0.00
0.00 0.00 0.00 0.00 0.00 0.00 0.01 0.01 0.01 0.00 0.00 0.01 0.01 0.01 0.01 0.01 0.01 0.01 0.01 0.01 0.01 0.01 0.01 0.00 0.00 0.00 0.00 0.00 0.00 0.00 0.00 0.00 0.00 0.00 0.00 0.00 0.00 0.00 0.00 0.00 0.00 0.00 0.01
0.00 0.00 0.00 0.00 0.01 0.01 0.01 0.01 0.01 0.01 0.01 0.01 0.01 0.01 0.01 0.01 0.01 0.01 0.01 0.00 0.00 0.00 0.01 0.01 0.00 0.00 0.00 0.00 0.00 0.00 0.00 0.00 0.00 0.00 0.00 0.00 0.00 0.00 0.00 0.00 0.00 0.01 0.01
0.00 0.00 0.00 0.00 0.00 0.01 0.01 0.01 0.01 0.01 0.01 0.01 0.01 0.01 0.01 0.00 0.00 0.01 0.00 0.00 0.00 0.00 0.01 0.00 0.00 0.00 0.00 0.01 0.01 0.00 0.00 0.00 0.00 0.00 0.00 0.00 0.01 0.00 0.00 0.00 0.00 0.00 0.00